Regional Weather Roundup
Issued by NWS

Home | Current Version | Previous Version | Text Only | Print | Product List | Glossary Off
Versions: 1 2 3 4 5 6 7 8 9 10 11 12 13 14 15 16 17 18 19 20 21 22 23 24 25 26 27 28 29 30 31 32 33 34 35 36 37 38 39 40 41 42 43 44 45 46 47 48 49 50

000
ASUS43 KLOT 282107
RWRIL

ILLINOIS REGIONAL WEATHER ROUNDUP
NATIONAL WEATHER SERVICE CHICAGO/ROMEOVILLE IL
400 PM CDT FRI APR 28 2017

NOTE: "FAIR" INDICATES FEW OR NO CLOUDS BELOW 12,000 FEET WITH NO
SIGNIFICANT WEATHER AND/OR OBSTRUCTIONS TO VISIBILITY.

* THESE STATIONS ARE NOT UNDER NWS QUALITY CONTROL. THEY ALSO MAY NOT
  REPORT WEATHER SUCH AS PRECIPITATION OR FOG.

ILZ001-002-007-009-015-016-024-282200-
NORTHWEST ILLINOIS

CITY           SKY/WX    TMP DP  RH WIND       PRES   REMARKS
MOLINE         CLOUDY    49  45  86 E12       29.80F FOG
STERLING*      CLOUDY    52  50  93 NE7       29.84F FOG
SAVANNA*       CLOUDY    48  44  87 NE9       29.85S
$$

ILZ003-004-008-010-011-017-018-282200-
NORTH CENTRAL ILLINOIS

CITY           SKY/WX    TMP DP  RH WIND       PRES   REMARKS
ROCKFORD       CLOUDY    51  45  79 NE10      29.88F
FREEPORT*      CLOUDY    47  43  84 NE8       29.87F
ROCHELLE*      CLOUDY    52  50  93 E9        29.84F FOG
DE KALB*       CLOUDY    55  49  80 E10       29.83F
PERU*          CLOUDY    56  50  81 E12       29.82F
$$

ILZ005-006-012>014-019>023-282200-
NORTHEAST ILLINOIS

CITY           SKY/WX    TMP DP  RH WIND       PRES   REMARKS
CHICAGO-OHARE  CLOUDY    58  45  62 E10       29.85F
CHICAGO-MIDWAY CLOUDY    56  46  69 NE13      29.84F
AURORA         CLOUDY    59  50  72 E13       29.83F
LANSING*       CLOUDY    60  51  71 E8        29.84F
JOLIET*        CLOUDY    60  51  71 E10       29.82F
WAUKEGAN       CLOUDY    47  40  76 E7        29.88F
DUPAGE AIRPORT CLOUDY    59  50  72 E8        29.83F
KANKAKEE*      CLOUDY    62  51  66 SE13      29.83F
WHEELING       CLOUDY    53  45  74 E7        29.88F
MORRIS*        CLOUDY    59  49  69 E7        29.81F
ROMEOVILLE*    CLOUDY    59  51  76 SE9       29.82F
NORTHERLY ISL    N/A     48  44  86 N7          N/A
$$

LMZ740>746-282200-
SOUTHERN LAKE MICHIGAN

STATION/POSITION SKY/WX   TEMP    WIND        PRES    VSBY  WAVE
                          AIR SEA DIR/SP/G                  HT/PER
                          (F)     (DEG/KT/KT) (MB)    (MI)  (FT/S)
SOUTHERN BUOY              42 42   30/  6/  8 1014.3          0
HARRISON CRIB              47      60/ 11/ 12   N/A
BURNHAM HARBOR             50      30/  6/  7   N/A
CALUMET HARBOR             49      10/  4/  7 1011.2F
BURNS HARBOR               60     130/  6/ 11 1012.2F
MICHIGAN CITY              59     150/  9/ 10   N/A
MICHIGAN CITY 6N           47 47                N/A           1
ST. JOSEPH                 54 48  150/  2/  6 1012.6          1/ 2
$$

ILZ025>027-034>036-040-047-049-050-058-095>099-282200-
WEST-CENTRAL ILLINOIS

CITY           SKY/WX    TMP DP  RH WIND       PRES   REMARKS
QUINCY         CLOUDY    59  55  87 SE7       29.75R
GALESBURG*     CLOUDY    56  53  88 E6        29.77F
MACOMB*        CLOUDY    58  55  90 E6        29.79S
JACKSONVILLE*  CLOUDY    57  54  89 SE7       29.77R
PITTSFIELD*    CLOUDY    58  55  91 SE7       29.78R
$$

ILZ028>032-037-038-041>044-048-051>054-059>061-282200-
CENTRAL ILLINOIS

CITY           SKY/WX    TMP DP  RH WIND       PRES   REMARKS
PONTIAC        CLOUDY    60  56  85 S10G20    29.82S
BLOOMINGTON    CLOUDY    56  53  90 SE9       29.79F
DECATUR        LGT RAIN  54  54 100 SE15      29.80F
PEORIA         CLOUDY    58  54  86 SE5       29.80R
LACON*         CLOUDY    59  53  79 SE9       29.79F
LINCOLN*       CLOUDY    58  55  92 S5        29.79R
SPRINGFIELD    CLOUDY    58  55  90 SE12      29.80R
TAYLORVILLE    CLOUDY    54  53  96 SE10      29.79R
$$

ILZ033-039-045-046-055>057-062-063-282200-
EAST-CENTRAL ILLINOIS

CITY           SKY/WX    TMP DP  RH WIND       PRES   REMARKS
CHAMPAIGN      CLOUDY    54  51  90 E12       29.78F
RANTOUL*       LGT RAIN  56  54  91 E13       29.79F
MATTOON        TSTM      53  53 100 E8        29.79F FOG
PARIS*         TSTM      54  53  95 NE14      29.78F
$$

ILZ079-100>102-282200-
SOUTHWEST ILLINOIS

CITY           SKY/WX    TMP DP  RH WIND       PRES   REMARKS
ALTON          LGT RAIN  54  54 100 E9        29.79S FOG
BELLEVILLE     CLOUDY    55  55 100 NE10      29.77F FOG
CAHOKIA*       CLOUDY    58  55  90 NE7       29.77F FOG
SPARTA*        CLOUDY    61  61 100 N5        29.77S
$$

ILZ064>066-069>071-074>076-080>082-084>086-088>090-092>094-282200-
SOUTH-CENTRAL ILLINOIS

CITY           SKY/WX    TMP DP  RH WIND       PRES   REMARKS
CARBONDALE     CLOUDY    66  64  93 SE10      29.72F
CAIRO*         CLOUDY    73  68  85 S12       29.76S
EFFINGHAM*     TSTM      57  56  96 E6        29.81R
MARION         LGT RAIN  68  68 100 S7        29.76F
MT. VERNON     RAIN      61  61 100 E12       29.74R FOG
CENTRALIA*     CLOUDY    61  60  97 NW16      29.79R THUNDER
SALEM*         TSTM      59  56  90 N16G22    29.78R
METROPOLIS*    CLOUDY    73  67  81 S10       29.79R
$$

ILZ067-068-072-073-078-083-087-091-282200-
SOUTHEAST ILLINOIS

CITY           SKY/WX    TMP DP  RH WIND       PRES   REMARKS
LAWRENCEVILLE  CLOUDY    62  58  86 E12       29.76F
FLORA*           N/A    N/A N/A N/A NE5       29.77R THUNDER
FAIRFIELD*     TSTM      62  61  96 SE6       29.71F
HARRISBURG*    CLOUDY    69  64  83 SE10      29.75F
ROBINSON*      TSTM      57  55  94 E13       29.78F
CARMI*         CLOUDY    68  62  82 SE12      29.74F THUNDER
$$

ABBREVIATIONS USED IN REMARKS
   TC - TEMPERATURE IN CELSIUS
  WCI - WIND CHILL INDEX
   HX - HEAT INDEX
  VSB - VISIBILITY
$$





USA.gov is the U.S. government's official web portal to all federal, state and local government web resources and services.